Location: Kvarnån
(66.4000°N, 22.2667°E)
Time: 21:02:29
(UTC+00:00)

IDEFIX/ARIANE 42P - Pass Details

Date: 15 October 2024
Orbit: 782 x 798 km, 98.5° (Epoch: 06 November)

Event Time Altitude Azimuth Distance (km) Brightness Sun altitude
Rises 23:39:42 0° 18° (NNE) 3,323 7.0 -30.8°
Reaches altitude 10° 23:42:15 10° 28° (NNE) 2,387 5.9 -30.7°
Enters shadow 23:47:04 35° 94° (E) 1,271 3.7 -30.5°
